Weather History for Sacramento International, CA

Change the Weather History Date:

Saturday, October 12, 2013

  Actual Average Record
Temperature  
Mean Temperature 60 °F -  
Max Temperature 77 °F 79 °F 97 °F (1991)
Min Temperature 44 °F 51 °F 39 °F (2002)
Degree Days  
Heating Degree Days 4    
Growing Degree Days 10 (Base 50)    
Moisture  
Dew Point 45 °F    
Average Humidity 63    
Maximum Humidity 97    
Minimum Humidity 29    
Precipitation  
Precipitation 0.00 in - - ()
Sea Level Pressure  
Sea Level Pressure 29.92 in    
Wind  
Wind Speed 4 mph (SSE)    
Max Wind Speed 14 mph    
Max Gust Speed -    
Visibility 10 miles    
Events      
Averages and records for this station are not official NWS values.
T = Trace of Precipitation, MM = Missing Value Source: NWS Daily Summary

Daily Weather History Graph

Daily Weather History Graph

Search for Another Location

Airport:

Trip Planner

Search our weather history database for the weather conditions in past years. The results will help you decide how hot, cold, wet, or windy it might be!

Date:

Astronomy

Oct. 12, 2013 Rise Set
Actual Time 7:12 AM PDT 6:31 PM PDT
Civil Twilight 6:46 AM PDT 6:58 PM PDT
Nautical Twilight 6:15 AM PDT 7:29 PM PDT
Astronomical Twilight 5:44 AM PDT 8:00 PM PDT
Moon 2:41 PM PDT (10/12) 12:26 AM PDT (10/12)
Length of Visible Light 12h 12m
Length of Day
11h 18m
First Quarter, 60% of the Moon is Illuminated
Oct 12
First Quarter
Oct 18
Full
Oct 26
Last Quarter
Nov 3
New
Nov 9
First Quarter

Hourly Weather History & Observations

Time (PDT) Temp. Dew Point Humidity Pressure Visibility Wind Dir Wind Speed Gust Speed Precip Events Conditions
12:53 AM 54.0 °F 45.0 °F 72% 29.97 in 10.0 mi SE 3.5 mph - N/A   Clear
1:53 AM 54.0 °F 46.0 °F 75% 29.97 in 10.0 mi SSE 5.8 mph - N/A   Clear
2:53 AM 46.0 °F 41.0 °F 83% 29.96 in 10.0 mi Calm Calm - N/A   Clear
3:53 AM 46.0 °F 42.1 °F 86% 29.96 in 10.0 mi Calm Calm - N/A   Clear
4:53 AM 44.1 °F 42.1 °F 93% 29.96 in 10.0 mi Calm Calm - N/A   Clear
5:53 AM 45.0 °F 44.1 °F 97% 29.96 in 10.0 mi Calm Calm - N/A   Clear
6:53 AM 45.0 °F 43.0 °F 93% 29.97 in 10.0 mi Calm Calm - N/A   Partly Cloudy
7:53 AM 46.0 °F 43.0 °F 89% 29.98 in 10.0 mi Calm Calm - N/A   Partly Cloudy
8:53 AM 53.1 °F 46.9 °F 80% 29.99 in 9.0 mi Calm Calm - N/A   Partly Cloudy
9:53 AM 57.0 °F 46.9 °F 69% 29.98 in 9.0 mi SSE 3.5 mph - N/A   Clear
10:53 AM 62.1 °F 48.0 °F 60% 29.97 in 10.0 mi South 3.5 mph - N/A   Clear
11:53 AM 66.9 °F 46.9 °F 49% 29.96 in 10.0 mi Variable 3.5 mph - N/A   Clear
12:53 PM 72.0 °F 46.0 °F 40% 29.93 in 10.0 mi SSW 6.9 mph - N/A   Clear
1:53 PM 73.0 °F 46.0 °F 38% 29.89 in 10.0 mi South 9.2 mph - N/A   Clear
2:53 PM 75.9 °F 43.0 °F 31% 29.88 in 10.0 mi Variable 6.9 mph - N/A   Clear
3:53 PM 77.0 °F 42.1 °F 29% 29.86 in 10.0 mi South 10.4 mph - N/A   Partly Cloudy
4:53 PM 75.9 °F 41.0 °F 29% 29.85 in 10.0 mi South 13.8 mph - N/A   Partly Cloudy
5:53 PM 73.0 °F 43.0 °F 34% 29.84 in 10.0 mi South 10.4 mph - N/A   Partly Cloudy
6:53 PM 68.0 °F 48.0 °F 49% 29.84 in 10.0 mi South 11.5 mph - N/A   Partly Cloudy
7:53 PM 63.0 °F 46.9 °F 56% 29.84 in 10.0 mi South 9.2 mph - N/A   Clear
8:53 PM 60.1 °F 45.0 °F 57% 29.84 in 10.0 mi South 11.5 mph - N/A   Clear
9:53 PM 59.0 °F 46.0 °F 62% 29.85 in 10.0 mi SSE 10.4 mph - N/A   Clear
10:53 PM 57.0 °F 46.9 °F 69% 29.86 in 10.0 mi SSE 5.8 mph - N/A   Clear
11:53 PM 55.9 °F 46.0 °F 69% 29.88 in 10.0 mi East 10.4 mph - N/A   Scattered Clouds